Location: Bow
(51.5261°N, 0.0167°W)
Time: 01:56:40
(UTC+00:00)

Meteor 2-5 Rocket - Pass Details

Date: 18 September 2020
Orbit: 833 x 912 km, 81.2° (Epoch: 30 October)

Event Time Altitude Azimuth Distance (km) Brightness Sun altitude
Rises 20:19:43 0° 347° (NNW) 3,413 7.5 -20.5°
Reaches altitude 10° 20:22:08 10° 347° (NNW) 2,481 6.7 -20.8°
Maximum altitude 20:27:46 89° 75° (ENE) 865 3.6 -21.5°
Enters shadow 20:30:21 35° 168° (SSE) 1,373 4.4 -21.9°
